Location: Coopersdale
(40.3556°N, 78.9372°W)
Time: 02:56:32
(UTC+00:00)

Tiros 1 despin weight - Pass Details

Date: 26 January 2021
Orbit: 593 x 642 km, 48.2° (Epoch: 02 March)

Event Time Altitude Azimuth Distance (km) Brightness Sun altitude
Rises 01:24:08 0° 295° (WNW) 2,844 ? -33.9°
Reaches altitude 10° 01:26:33 10° 287° (WNW) 1,933 ? -34.3°
Enters shadow 01:28:08 20° 275° (W) 1,398 ? -34.6°
Maximum altitude 01:30:37 36° 220° (SW) 937 - -35.1°
Drops below altitude 10° 01:34:39 10° 153° (SSE) 1,913 - -35.9°
Sets 01:37:02 0° 145° (SE) 2,811 - -36.3°
